Wind_Speed
18 18 17 17 16 16 16 15 15 14 14 13 13 13 12 12 12 12 12 12 12 12 12 12 11 11 11 12 12 12 12 13 13 13 14 14 14 14 15 15 15 14 15
19 18 18 17 16 16 15 15 16 15 15 14 15 14 14 14 14 13 13 13 13 13 13 13 12 12 12 13 13 13 14 14 14 14 14 14 14 15 15 15 15 14 15
19 19 18 17 16 15 14 14 15 15 15 15 16 15 15 16 15 15 15 15 14 14 13 13 13 13 13 13 13 14 15 15 15 15 15 15 15 15 15 15 15 15 16
20 20 19 18 17 16 16 15 15 15 16 16 16 16 16 17 16 16 15 15 14 14 13 13 14 14 14 13 14 14 15 16 15 16 16 15 16 16 16 15 16 16 17
21 21 20 19 17 17 16 15 15 16 16 16 16 16 16 17 16 15 15 15 15 15 15 15 15 15 15 15 15 16 16 16 16 17 17 16 16 16 16 16 16 16 17
20 20 19 19 18 17 16 16 16 16 16 16 16 16 16 17 16 15 15 15 15 16 16 16 16 15 16 16 16 16 16 16 16 17 16 16 16 17 17 16 16 17 18
19 19 19 19 19 18 17 17 17 17 17 18 17 17 16 15 15 16 16 17 16 16 16 16 16 16 16 16 16 16 16 16 16 17 16 16 16 17 17 18 18 19 19
19 19 19 19 19 19 19 18 18 18 18 18 17 17 17 17 17 16 16 17 17 17 16 16 16 16 16 17 17 17 17 17 17 17 17 17 16 16 17 18 19 19 19
18 18 18 18 19 19 20 20 19 18 17 17 17 17 17 18 18 17 17 17 17 17 17 17 17 17 17 17 17 17 18 18 18 18 18 18 18 18 18 18 19 20 20
19 19 19 19 19 19 19 18 18 17 17 17 18 18 18 18 18 18 18 18 18 18 18 19 19 19 19 19 18 18 18 19 19 19 19 19 19 19 19 18 19 20 20
20 19 19 19 19 19 18 17 17 18 18 18 18 18 18 18 18 18 19 19 19 19 19 20 20 20 20 20 20 19 19 19 19 19 20 20 19 19 19 19 19 20 21
19 18 18 18 18 18 19 19 19 19 19 19 19 19 18 18 18 18 19 19 19 20 20 21 21 21 21 21 21 21 21 21 21 21 21 20 20 20 20 20 20 21 21
20 19 19 19 19 19 19 20 20 20 20 20 20 19 19 18 19 19 19 20 20 21 21 22 22 22 22 22 21 21 22 22 22 22 22 21 22 21 21 22 22 22 22
21 22 22 21 21 21 20 20 20 20 20 20 20 20 19 19 19 20 20 20 21 22 22 23 23 22 22 22 22 22 23 22 22 22 22 23 23 23 23 23 23 24 25
22 22 23 23 23 22 22 21 21 20 20 20 20 20 20 20 20 20 21 21 21 22 23 23 23 23 22 22 22 23 23 23 23 23 23 23 23 24 24 24 25 25 26
24 24 24 24 24 23 23 22 22 21 20 21 21 21 21 22 22 22 22 22 22 23 23 23 23 22 22 23 23 23 23 23 23 23 23 23 23 24 24 25 25 25 25
25 25 25 24 24 23 23 22 22 22 20 21 21 21 22 22 23 22 22 23 23 23 23 23 23 23 23 23 23 23 23 23 23 22 22 23 23 23 24 25 25 25 26
25 25 25 25 24 23 23 23 23 22 22 21 21 21 21 22 22 22 23 23 23 23 23 23 23 24 24 23 23 23 23 23 23 24 24 24 24 24 25 26 26 26 26
25 25 25 25 24 23 23 23 23 23 23 22 22 23 23 23 23 23 23 23 23 23 23 23 23 23 22 22 22 22 22 23 23 23 23 24 25 25 25 25 25 26 26
25 25 25 24 24 23 23 23 24 23 24 24 24 24 24 24 24 24 24 24 23 23 23 23 22 21 22 22 23 23 23 23 24 24 24 24 25 25 26 26 26 26 26
25 25 25 24 24 24 24 24 24 25 25 25 25 25 25 25 26 26 26 25 24 23 23 23 22 22 22 23 23 24 24 24 24 25 25 25 25 25 26 26 26 27 26
25 25 25 25 25 25 25 25 26 26 26 26 26 27 27 26 26 26 26 25 25 24 24 23 22 23 23 23 24 24 24 24 25 25 25 25 25 26 26 26 26 27 27
24 24 24 23 24 25 25 25 25 26 26 27 27 27 27 27 27 26 26 26 26 26 25 24 24 24 24 25 25 25 25 25 25 25 26 26 26 26 26 26 26 26 26
22 22 22 23 23 24 24 25 25 26 27 27 27 27 27 27 26 27 26 26 26 26 25 25 26 26 26 26 26 26 26 26 26 26 27 27 26 25 25 26 26 26 26
20 21 21 21 22 23 24 25 25 26 26 26 26 26 26 26 27 26 26 26 26 26 25 26 26 26 26 26 27 27 27 27 27 27 27 27 26 26 26 26 26 26 26
20 20 20 21 22 23 24 24 24 24 24 24 25 25 26 26 27 27 27 27 26 26 26 26 26 26 26 26 27 28 28 28 28 28 27 27 27 27 27 27 26 26 27
Wind_Direction
283 285 284 285 287 287 287 290 290 288 287 288 290 288 289 289 287 284 283 285 285 288 288 287 286 289 292 295 298 298 298 298 298 295 291 290 287 288 288 288 288 286 288
280 281 281 283 286 286 285 286 287 286 285 286 289 288 287 287 286 285 282 285 285 286 287 288 286 287 292 294 294 294 295 296 298 297 293 290 289 288 286 287 286 285 289
277 279 280 283 284 283 284 286 288 288 286 286 288 286 285 283 283 282 282 282 284 286 286 287 285 287 292 295 294 295 295 294 295 295 292 290 290 289 288 288 286 287 290
275 275 277 280 280 280 283 285 286 289 289 288 286 288 286 281 280 281 281 281 283 286 286 287 289 291 291 293 293 295 295 294 294 295 293 289 289 289 289 288 287 287 287
276 273 272 274 275 278 282 285 286 287 289 288 288 290 288 283 278 279 280 280 283 285 286 288 290 290 289 291 291 294 295 292 293 293 292 291 290 291 290 289 290 289 288
275 273 269 269 271 274 277 280 284 287 290 289 288 288 285 282 279 276 277 279 283 286 286 286 288 290 291 291 290 292 291 291 290 291 291 292 294 293 291 288 290 290 290
274 270 268 266 267 271 273 277 281 285 287 288 286 286 285 282 279 277 277 278 281 285 286 286 289 291 290 289 291 293 293 292 292 291 290 293 294 294 294 291 293 292 291
277 273 270 267 266 268 270 275 277 280 282 283 285 285 285 282 280 278 277 278 281 284 286 286 287 290 289 289 290 290 290 291 292 293 293 294 294 294 295 293 292 292 293
275 275 272 271 268 268 271 272 274 277 279 280 281 284 282 279 278 278 278 279 280 282 285 287 288 289 289 291 290 290 291 293 292 290 289 291 292 293 293 293 292 292 292
274 274 273 272 271 272 273 273 273 272 273 277 280 282 280 277 277 277 278 279 279 280 282 284 287 289 290 291 292 292 292 294 293 291 290 290 291 292 291 292 292 290 290
271 270 271 271 272 272 271 272 271 270 272 275 279 280 279 277 278 278 277 278 278 280 282 284 286 288 288 289 289 289 290 291 291 289 289 290 290 289 289 291 292 292 291
267 267 268 270 272 272 271 270 270 271 273 275 275 276 279 278 278 279 279 279 279 280 283 284 284 285 287 288 286 286 287 288 288 288 289 289 289 289 288 289 291 293 292
265 266 268 269 271 271 271 272 270 270 272 275 275 276 278 280 279 278 280 280 279 280 282 284 284 284 285 286 284 283 284 286 287 287 287 289 290 290 288 287 288 290 292
268 268 269 268 271 271 271 270 270 270 271 273 275 276 279 280 279 278 279 281 281 281 281 282 282 282 282 283 283 283 284 284 286 287 288 290 291 290 290 288 287 287 289
268 269 269 269 269 270 270 272 272 272 275 276 276 276 277 278 280 280 279 281 282 281 280 281 281 281 281 282 282 284 284 284 285 286 287 289 290 290 290 290 289 286 287
266 267 268 268 267 267 269 272 274 273 274 276 277 278 278 280 281 282 282 282 283 283 282 281 281 280 280 281 283 283 283 284 284 285 287 288 289 290 291 292 292 290 290
264 265 267 266 266 267 268 270 274 275 275 276 277 279 280 282 282 282 282 282 283 284 284 283 281 280 280 280 281 281 282 283 285 286 287 289 290 290 291 290 291 292 292
264 264 264 265 264 265 268 271 273 275 275 276 277 279 280 282 284 283 281 282 283 283 283 283 282 281 279 279 280 280 281 284 286 288 289 289 290 291 292 293 293 293 294
265 263 264 264 264 265 268 271 273 275 276 277 278 278 280 282 283 282 282 282 283 282 282 283 284 282 281 280 281 282 283 285 288 289 291 291 292 292 293 293 293 294 295
264 264 264 263 264 267 269 271 273 274 275 276 277 277 278 280 282 282 282 281 283 282 280 281 282 284 285 284 285 284 284 284 286 288 291 293 293 293 292 292 292 293 294
263 264 263 263 264 267 270 273 273 274 275 276 277 278 277 277 278 280 282 282 281 280 278 279 279 282 284 284 284 284 284 285 287 289 291 293 293 293 293 292 293 293 293
264 263 265 266 266 267 269 271 273 274 274 275 277 277 277 277 278 279 280 280 280 279 279 280 279 280 282 283 284 284 284 286 289 290 291 291 291 292 293 292 292 292 293
267 266 267 268 269 270 271 272 273 274 274 274 275 276 276 276 278 280 281 279 278 278 278 279 279 281 282 281 282 284 287 289 289 289 290 290 289 290 292 292 293 292 293
267 267 268 269 269 271 271 272 274 276 276 275 275 276 277 277 278 280 280 279 278 277 277 278 278 280 282 283 283 283 286 288 288 288 288 289 290 291 293 293 292 293 294
268 267 267 268 270 272 274 275 277 278 278 277 276 276 277 278 279 278 279 278 276 276 275 277 279 281 281 282 283 283 285 287 288 289 289 289 289 290 291 293 293 292 293
267 268 268 270 274 276 277 278 279 278 279 278 276 276 277 278 279 278 277 276 275 275 276 278 280 282 283 283 283 283 283 283 284 287 289 291 290 289 290 291 292 292 292
Height
5833 5833 5832 5832 5832 5831 5831 5831 5831 5830 5829 5829 5829 5828 5828 5827 5827 5827 5827 5827 5827 5826 5826 5825 5825 5825 5824 5824 5823 5822 5822 5821 5821 5820 5820 5819 5818 5818 5817 5817 5816 5816 5816
5829 5829 5829 5828 5828 5828 5827 5827 5827 5827 5826 5826 5825 5825 5825 5824 5824 5824 5824 5824 5824 5823 5823 5823 5822 5822 5821 5821 5820 5819 5818 5818 5817 5817 5816 5816 5815 5814 5814 5814 5812 5812 5812
5825 5825 5825 5825 5824 5824 5824 5823 5823 5823 5822 5822 5822 5821 5821 5821 5820 5821 5821 5821 5821 5820 5820 5819 5819 5819 5818 5818 5817 5816 5815 5814 5813 5813 5812 5811 5811 5810 5810 5810 5809 5808 5808
5821 5821 5821 5821 5820 5820 5820 5820 5820 5819 5819 5819 5818 5817 5817 5816 5816 5817 5817 5817 5817 5817 5816 5816 5816 5815 5815 5814 5813 5812 5811 5810 5809 5809 5808 5807 5807 5806 5806 5806 5805 5804 5804
5816 5816 5816 5817 5816 5816 5816 5816 5816 5815 5815 5815 5814 5813 5812 5812 5812 5813 5813 5813 5813 5813 5813 5813 5812 5812 5811 5810 5809 5808 5807 5806 5806 5805 5804 5803 5803 5802 5802 5802 5801 5800 5799
5811 5811 5811 5812 5812 5812 5812 5812 5812 5812 5811 5811 5810 5810 5809 5808 5808 5809 5809 5809 5810 5809 5809 5809 5808 5807 5807 5806 5805 5804 5803 5802 5802 5801 5800 5799 5799 5799 5798 5797 5797 5796 5795
5806 5806 5806 5806 5807 5807 5808 5808 5808 5808 5808 5807 5807 5806 5805 5805 5805 5805 5805 5805 5805 5805 5805 5804 5804 5803 5803 5802 5801 5800 5799 5798 5798 5797 5796 5795 5795 5795 5794 5793 5792 5791 5790
5801 5801 5801 5801 5802 5802 5803 5803 5803 5803 5803 5803 5802 5802 5801 5801 5801 5801 5801 5801 5801 5801 5800 5800 5800 5799 5798 5797 5796 5796 5795 5794 5794 5793 5792 5791 5791 5790 5789 5788 5787 5786 5786
5795 5795 5796 5796 5797 5797 5797 5798 5798 5798 5798 5798 5798 5798 5797 5797 5797 5797 5797 5797 5797 5797 5796 5795 5795 5794 5794 5793 5792 5791 5791 5790 5789 5788 5788 5787 5786 5785 5784 5783 5782 5781 5781
5791 5791 5791 5791 5791 5792 5792 5793 5793 5793 5793 5793 5793 5793 5793 5792 5792 5792 5792 5792 5792 5792 5791 5791 5790 5790 5789 5788 5788 5787 5786 5785 5784 5783 5783 5782 5781 5780 5779 5778 5777 5776 5775
5786 5786 5786 5786 5786 5787 5787 5787 5788 5788 5789 5789 5789 5788 5788 5788 5787 5787 5787 5787 5787 5786 5786 5786 5785 5785 5784 5784 5783 5782 5781 5780 5779 5778 5778 5777 5776 5775 5774 5772 5771 5770 5769
5781 5781 5781 5781 5782 5782 5782 5782 5783 5783 5783 5784 5783 5783 5783 5783 5782 5782 5782 5782 5781 5781 5781 5781 5780 5779 5779 5778 5777 5776 5775 5775 5774 5773 5772 5771 5770 5769 5768 5767 5766 5764 5763
5776 5776 5776 5776 5777 5777 5776 5776 5777 5777 5777 5778 5778 5778 5778 5777 5777 5777 5776 5776 5776 5775 5775 5775 5774 5773 5773 5772 5771 5770 5770 5769 5768 5767 5767 5765 5764 5763 5762 5761 5759 5758 5757
5770 5770 5770 5771 5771 5771 5771 5771 5771 5772 5772 5772 5772 5772 5772 5772 5771 5771 5771 5770 5770 5769 5769 5768 5768 5767 5766 5766 5765 5764 5763 5763 5762 5761 5760 5759 5758 5756 5755 5754 5753 5752 5750
5764 5764 5764 5765 5765 5765 5765 5765 5765 5766 5766 5766 5766 5766 5766 5766 5765 5765 5764 5764 5763 5763 5762 5762 5761 5761 5760 5759 5759 5758 5757 5756 5755 5754 5753 5752 5751 5750 5748 5747 5745 5744 5743
5758 5758 5758 5758 5759 5759 5759 5759 5759 5759 5760 5760 5760 5760 5759 5759 5758 5758 5758 5757 5757 5756 5756 5755 5754 5754 5753 5752 5752 5751 5750 5749 5748 5747 5746 5745 5744 5742 5741 5740 5738 5736 5735
5750 5751 5751 5752 5752 5752 5753 5753 5753 5754 5754 5754 5753 5753 5753 5752 5752 5751 5751 5750 5750 5750 5749 5748 5747 5747 5746 5745 5745 5744 5743 5742 5741 5740 5739 5738 5736 5735 5734 5732 5730 5729 5727
5743 5744 5744 5745 5745 5745 5746 5746 5746 5747 5747 5747 5747 5747 5746 5746 5745 5745 5744 5744 5744 5743 5742 5741 5741 5740 5739 5739 5738 5737 5736 5736 5735 5733 5732 5730 5729 5728 5726 5725 5723 5721 5719
5735 5736 5737 5737 5738 5738 5739 5739 5740 5740 5740 5740 5740 5739 5739 5739 5738 5738 5737 5737 5737 5736 5735 5735 5734 5733 5732 5732 5731 5730 5729 5728 5727 5726 5725 5723 5722 5720 5718 5717 5715 5713 5712
5728 5728 5729 5730 5731 5731 5732 5732 5732 5733 5733 5733 5732 5732 5732 5731 5731 5731 5730 5730 5729 5729 5729 5728 5727 5727 5726 5725 5724 5723 5723 5721 5720 5719 5718 5716 5714 5712 5711 5709 5708 5706 5704
5721 5721 5722 5722 5723 5724 5724 5724 5725 5725 5725 5725 5725 5724 5724 5724 5723 5723 5723 5722 5722 5721 5721 5721 5720 5720 5719 5718 5717 5716 5715 5714 5713 5712 5710 5708 5706 5705 5703 5701 5700 5698 5696
5713 5714 5715 5715 5716 5716 5717 5717 5717 5717 5717 5717 5716 5716 5716 5716 5715 5715 5714 5714 5714 5714 5713 5713 5713 5712 5712 5710 5709 5708 5707 5706 5705 5704 5702 5700 5699 5697 5695 5693 5691 5690 5688
5706 5706 5707 5707 5708 5708 5708 5708 5708 5708 5708 5708 5708 5708 5707 5707 5707 5707 5706 5706 5705 5705 5706 5705 5705 5704 5703 5703 5701 5700 5699 5698 5697 5695 5694 5692 5690 5689 5687 5685 5683 5682 5680
5698 5699 5699 5700 5700 5700 5700 5700 5700 5700 5700 5700 5700 5699 5699 5699 5698 5698 5697 5697 5697 5697 5697 5697 5697 5696 5695 5694 5693 5692 5691 5690 5689 5687 5686 5684 5683 5681 5679 5677 5675 5674 5672
5692 5692 5692 5692 5692 5693 5693 5693 5692 5692 5692 5691 5691 5691 5690 5690 5690 5689 5689 5689 5689 5689 5689 5689 5688 5688 5687 5686 5685 5684 5683 5682 5681 5679 5677 5676 5675 5673 5671 5669 5668 5666 5664
5686 5686 5686 5686 5686 5686 5685 5685 5684 5684 5684 5683 5683 5682 5682 5681 5681 5681 5680 5680 5680 5681 5680 5680 5680 5679 5679 5678 5677 5676 5675 5674 5672 5671 5669 5668 5666 5665 5663 5661 5660 5658 5656